Location: Arnold
(38.6403°N, 100.0462°W)
Time: 07:57:41
(UTC-05:00)

Envisat - Visible Passes

Search period start: 23 March 2019 00:00
Search period end: 02 April 2019 00:00
Orbit: 764 x 766 km, 98.2° (Epoch: 22 March)

Date Brightness Start Highest point End Pass type
(mag) Time Alt. Az. Time Alt. Az. Time Alt. Az.
23 Mar 5.5 21:22:20 10° SW 21:26:11 22° W 21:30:03 10° NW visible
24 Mar 4.0 20:44:21 10° S 20:49:14 49° W 20:54:10 10° NNW visible
25 Mar 6.1 21:50:14 10° WSW 21:51:59 12° W 21:53:45 10° WNW visible
26 Mar 5.2 21:10:36 10° SSW 21:14:53 27° W 21:19:12 10° NW visible
27 Mar 3.6 20:32:58 10° S 20:37:59 64° W 20:43:03 10° NNW visible
28 Mar 5.9 21:37:43 10° SW 21:40:38 15° W 21:43:35 10° NW visible
29 Mar 4.7 20:59:00 10° SSW 21:03:36 35° W 21:08:14 10° NNW visible
30 Mar 3.2 20:21:42 10° S 20:26:46 81° WSW 20:31:52 10° NNW visible
31 Mar 5.7 21:25:41 10° SW 21:29:19 20° W 21:32:58 10° NW visible
01 Apr 4.3 20:47:31 10° S 20:52:21 45° W 20:57:12 10° NNW visible
